CW8078 Weather Reports


time (UTC)temp
C
wind
direction
speed
KPH
gust
KPH
rain 1hr
cm
rain 24hr
cm
rain mn
cm
humidity
%
barometer
mb
20260902030304 27 123 0.0 0.0 0.00 0.00 0.00 73 1012.1
20260902024803 27 117 0.0 0.0 0.00 0.00 0.00 73 1011.9
20260902024303 27 117 0.0 0.0 0.00 0.00 0.00 75 1011.9
20260902023803 27 117 0.0 0.0 0.00 0.00 0.00 73 1011.8
20260902023303 27 117 0.0 0.0 0.00 0.00 0.00 73 1011.7
20260902021803 27 117 0.0 0.0 0.00 0.00 0.00 74 1011.6
20260902021303 27 117 0.0 0.0 0.00 0.00 0.00 74 1011.6
20260902020803 27 117 0.0 0.0 0.00 0.00 0.00 75 1011.6
20260902020303 27 117 0.0 0.0 0.00 0.00 0.00 75 1011.5
20260902014803 27 117 0.0 0.0 0.00 0.00 0.00 73 1011.4
20260902014303 27 117 0.0 0.0 0.00 0.00 0.00 72 1011.4
20260902013303 28 117 0.0 0.0 0.00 0.00 0.00 72 1011.3
20260902011803 28 117 0.0 0.0 0.00 0.00 0.00 69 1011.2
20260902011303 28 117 0.0 0.0 0.00 0.00 0.00 70 1011.2
20260902010803 28 117 0.0 0.0 0.00 0.00 0.00 70 1011.2
20260902010303 28 117 0.0 0.0 0.00 0.00 0.00 70 1011.2
20260902004803 28 117 0.0 0.0 0.00 0.00 0.00 71 1011.2
20260902004304 29 117 0.0 0.0 0.00 0.00 0.00 70 1011.1
20260902003803 29 117 0.0 0.0 0.00 0.00 0.00 70 1011.1
20260902003304 29 117 0.0 0.0 0.00 0.00 0.00 68 1011.2
20260902001303 30 117 0.0 0.0 0.00 0.00 0.00 68 1011.1
20260902000803 30 117 0.0 0.0 0.00 0.00 0.00 69 1011.1
20260902000304 30 117 0.0 0.0 0.00 0.00 0.00 67 1011.1
20260901234303 31 117 0.0 0.0 0.00 0.00 0.00 66 1011.3
20260901233303 31 117 0.0 0.0 0.00 0.00 0.00 64 1011.2
20260901231804 32 117 0.0 0.0 0.00 0.00 0.00 67 1011.3
20260901231303 32 117 0.0 0.0 0.00 0.00 0.00 65 1011.3
20260901230803 32 117 0.0 0.0 0.00 0.00 0.00 65 1011.3
20260901230303 32 117 0.0 0.0 0.00 0.00 0.00 62 1011.3
20260901224803 32 5 0.0 0.0 0.00 0.00 0.00 63 1011.2
20260901224303 32 5 0.0 0.0 0.00 0.00 0.00 63 1011.2
20260901223804 32 5 0.0 0.0 0.00 0.00 0.00 62 1011.2
20260901223303 33 5 0.0 0.0 0.00 0.00 0.00 61 1011.3
20260901221803 33 5 0.0 0.0 0.00 0.00 0.00 57 1011.4
20260901221303 33 5 0.0 0.0 0.00 0.00 0.00 56 1011.4
20260901220803 33 5 0.0 0.0 0.00 0.00 0.00 52 1011.4
20260901220303 33 5 0.0 0.0 0.00 0.00 0.00 59 1011.3
20260901214804 33 5 0.0 0.0 0.00 0.00 0.00 54 1011.3
20260901214303 33 5 0.0 0.0 0.00 0.00 0.00 54 1011.4
20260901213803 33 5 0.0 0.0 0.00 0.00 0.00 56 1011.4
20260901211303 34 5 0.0 0.0 0.00 0.00 0.00 51 1011.6
20260901210803 35 5 0.0 0.0 0.00 0.00 0.00 52 1011.6
20260901210304 34 5 0.0 0.0 0.00 0.00 0.00 54 1011.6
20260901204803 33 327 0.0 0.0 0.00 0.00 0.00 59 1011.8
20260901204303 33 327 0.0 0.0 0.00 0.00 0.00 60 1011.9
20260901203803 33 319 0.0 0.0 0.00 0.00 0.00 62 1011.9
20260901203304 33 319 0.0 0.0 0.00 0.00 0.00 61 1011.9
20260901200803 35 319 0.0 0.0 0.00 0.00 0.00 46 1012.3
20260901200303 35 319 0.0 0.0 0.00 0.00 0.00 47 1012.4
20260901194803 35 319 0.0 0.0 0.00 0.00 0.00 52 1012.5
20260901194303 35 319 0.0 0.0 0.00 0.00 0.00 50 1012.5
20260901193803 35 319 0.0 0.0 0.00 0.00 0.00 53 1012.5
20260901193303 36 319 0.0 0.0 0.00 0.00 0.00 49 1012.6
20260901191803 36 318 0.0 0.0 0.00 0.00 0.00 46 1012.7
20260901190803 36 224 0.0 0.0 0.00 0.00 0.00 46 1012.8
20260901184803 36 227 0.0 0.0 0.00 0.00 0.00 47 1013.1
20260901184303 36 232 0.0 0.0 0.00 0.00 0.00 50 1013.1
20260901183804 36 232 0.0 0.0 0.00 0.00 0.00 46 1013.1
20260901181804 36 151 0.0 0.0 0.00 0.00 0.00 49 1013.4
20260901181304 36 151 0.0 0.0 0.00 0.00 0.00 48 1013.4
20260901180803 36 151 0.0 0.0 0.00 0.00 0.00 48 1013.5
20260901180304 35 151 0.0 0.0 0.00 0.00 0.00 48 1013.6
20260901174803 35 162 0.0 0.0 0.00 0.00 0.00 49 1013.7
20260901174304 35 165 0.0 0.0 0.00 0.00 0.00 52 1013.7
20260901173804 35 165 0.0 0.0 0.00 0.00 0.00 51 1013.8
20260901173303 35 165 0.0 0.0 0.00 0.00 0.00 53 1013.9
20260901170804 34 178 0.0 0.0 0.00 0.00 0.00 54 1014.1
20260901170307 33 178 0.0 0.0 0.00 0.00 0.00 54 1014.2
20260901164803 32 178 0.0 0.0 0.00 0.00 0.00 59 1014.3
20260901164303 32 181 0.0 0.0 0.00 0.00 0.00 57 1014.3
20260901163803 32 181 0.0 0.0 0.00 0.00 0.00 58 1014.3
20260901163303 31 181 0.0 0.0 0.00 0.00 0.00 60 1014.4
20260901161804 31 181 0.0 0.0 0.00 0.00 0.00 60 1014.6
20260901160804 31 181 0.0 0.0 0.00 0.00 0.00 61 1014.5
20260901160303 30 198 0.0 0.0 0.00 0.00 0.00 62 1014.6
20260901153802 30 215 0.0 0.0 0.00 0.00 0.00 64 1014.6
20260901153302 29 215 0.0 0.0 0.00 0.00 0.00 66 1014.6
20260901151802 28 148 0.0 0.0 0.00 0.00 0.00 70 1014.5
20260901151302 28 148 0.0 0.0 0.00 0.00 0.00 70 1014.6
20260901150802 28 148 0.0 0.0 0.00 0.00 0.00 71 1014.5
20260901150302 28 148 0.0 0.0 0.00 0.00 0.00 70 1014.5
20260901144802 27 135 0.0 0.0 0.00 0.00 0.00 74 1014.6
20260901144302 27 135 0.0 0.0 0.00 0.00 0.00 74 1014.7
20260901143802 27 150 0.0 0.0 0.00 0.00 0.00 74 1014.7
20260901141802 26 150 0.0 0.0 0.00 0.00 0.00 76 1014.8
20260901141302 26 150 0.0 0.0 0.00 0.00 0.00 77 1014.7
20260901140802 26 150 0.0 0.0 0.00 0.00 0.00 77 1014.7
20260901140302 25 150 0.0 0.0 0.00 0.00 0.00 78 1014.8
20260901134802 25 150 0.0 0.0 0.00 0.00 0.00 79 1014.8
20260901134302 25 150 0.0 0.0 0.00 0.00 0.00 79 1014.9
20260901133801 24 150 0.0 0.0 0.00 0.00 0.00 80 1014.8
20260901133302 24 150 0.0 0.0 0.00 0.00 0.00 79 1014.8
20260901131802 23 150 0.0 0.0 0.00 0.00 0.00 85 1014.6
20260901131302 22 150 0.0 0.0 0.00 0.00 0.00 87 1014.6
20260901124802 21 150 0.0 0.0 0.00 0.00 0.00 88 1014.5
20260901123802 21 150 0.0 0.0 0.00 0.00 0.00 89 1014.4
20260901123302 21 150 0.0 0.0 0.00 0.00 0.00 88 1014.3
20260901121802 21 150 0.0 0.0 0.00 0.00 0.00 88 1014.3
20260901121301 21 150 0.0 0.0 0.00 0.00 0.00 88 1014.2
20260901120802 21 150 0.0 0.0 0.00 0.00 0.00 88 1014.1
20260901114303 21 150 0.0 0.0 0.00 0.00 0.00 88 1013.9
20260901113802 21 150 0.0 0.0 0.00 0.00 0.00 87 1013.8
20260901113302 21 150 0.0 0.0 0.00 0.00 0.00 87 1013.7
20260901111802 21 150 0.0 0.0 0.00 0.00 0.00 87 1013.5
20260901110802 21 150 0.0 0.0 0.00 0.00 0.00 87 1013.4
20260901110302 21 150 0.0 0.0 0.00 0.00 0.00 86 1013.3
20260901104802 21 150 0.0 0.0 0.00 0.00 0.00 86 1013.3
20260901104302 21 150 0.0 0.0 0.00 0.00 0.00 86 1013.4
20260901103802 21 150 0.0 0.0 0.00 0.00 0.00 86 1013.4
20260901103301 21 150 0.0 0.0 0.00 0.00 0.00 85 1013.3
20260901101802 21 150 0.0 0.0 0.00 0.00 0.00 86 1013.3
20260901101302 21 150 0.0 0.0 0.00 0.00 0.00 86 1013.3
20260901100802 21 150 0.0 0.0 0.00 0.00 0.00 86 1013.3
20260901100302 21 150 0.0 0.0 0.00 0.00 0.00 85 1013.3
20260901094803 21 150 0.0 0.0 0.00 0.00 0.00 85 1013.3
20260901094302 21 150 0.0 0.0 0.00 0.00 0.00 85 1013.2
20260901093802 21 150 0.0 0.0 0.00 0.00 0.00 85 1013.2
20260901093302 21 150 0.0 0.0 0.00 0.00 0.00 85 1013.2
20260901091302 22 150 0.0 0.0 0.00 0.00 0.00 84 1013.0
20260901090802 22 150 0.0 0.0 0.00 0.00 0.00 85 1013.1
20260901090303 22 150 0.0 0.0 0.00 0.00 0.00 84 1013.1
20260901084802 22 150 0.0 0.0 0.00 0.00 0.00 84 1012.9
20260901084302 22 150 0.0 0.0 0.00 0.00 0.00 84 1012.8
20260901083302 22 150 0.0 0.0 0.00 0.00 0.00 85 1012.8
20260901081802 22 150 0.0 0.0 0.00 0.00 0.00 83 1012.8
20260901080802 22 150 0.0 0.0 0.00 0.00 0.00 83 1012.7
20260901080302 22 150 0.0 0.0 0.00 0.00 0.00 84 1012.7
20260901073802 23 150 0.0 0.0 0.00 0.00 0.00 83 1012.6
20260901073302 23 150 0.0 0.0 0.00 0.00 0.00 83 1012.6
20260901071802 23 150 0.0 0.0 0.00 0.00 0.00 83 1012.7
20260901071302 23 150 0.0 0.0 0.00 0.00 0.00 83 1012.6
20260901070802 23 150 0.0 0.0 0.00 0.00 0.00 82 1012.6
20260901070302 23 150 0.0 0.0 0.00 0.00 0.00 81 1012.6
20260901064802 23 151 0.0 0.0 0.00 0.00 0.00 81 1012.6
20260901064302 23 151 0.0 0.0 0.00 0.00 0.00 80 1012.6
20260901063802 24 152 0.0 0.0 0.00 0.00 0.00 79 1012.6
20260901063302 24 152 0.0 0.0 0.00 0.00 0.00 80 1012.6
20260901061802 24 152 0.0 0.0 0.00 0.00 0.00 79 1012.7
20260901060302 25 152 0.0 0.0 0.00 0.00 0.00 77 1012.6
20260901054802 25 152 0.0 0.0 0.00 0.00 0.00 76 1012.6
20260901054302 26 152 0.0 0.0 0.00 0.00 0.00 77 1012.5
20260901053802 26 152 0.0 0.0 0.00 0.00 0.00 77 1012.5
20260901053302 26 29 0.0 0.0 0.00 0.00 0.00 76 1012.4
20260901051802 26 150 0.0 0.0 0.00 0.00 0.00 72 1012.3
20260901051302 27 150 0.0 0.0 0.00 0.00 0.00 72 1012.2
20260901050802 27 150 0.0 0.0 0.00 0.00 0.00 71 1012.2
20260901050303 27 150 0.0 0.0 0.00 0.00 0.00 71 1012.2
20260901044802 27 132 0.0 0.0 0.00 0.00 0.00 73 1012.3
20260901044303 27 132 0.0 0.0 0.00 0.00 0.00 73 1012.3
20260901043302 27 136 0.0 0.0 0.00 0.00 0.00 73 1012.3
20260901041802 27 136 0.0 0.0 0.00 0.00 0.00 71 1012.2
20260901041302 27 130 0.0 0.0 0.00 0.00 0.00 71 1012.2
20260901040802 27 156 0.0 0.0 0.00 0.00 0.00 72 1012.2
20260901040303 27 142 0.0 0.0 0.00 0.00 0.00 72 1012.2
20260901034302 28 115 0.0 0.0 0.00 0.00 0.00 70 1012.1
20260901033802 28 140 0.0 0.0 0.00 0.00 0.00 70 1012.1
20260901033302 28 155 0.0 0.0 0.00 0.00 0.00 70 1012.2
20260901031302 28 154 0.0 0.0 0.00 0.00 0.00 69 1012.1
20260901030802 28 154 0.0 0.0 0.00 0.00 0.00 68 1012.1